QPF
0.05 0.03 0.01 0.01 0.01 0.01 0.01 0.00 0.00 0.00 0.00 0.00 0.00 0.00 0.00 0.00 0.00 0.00 0.00 0.00 0.00 0.00 0.00 0.00 0.00 0.00 0.00 0.00 0.00 0.00 0.00 0.00 0.01 0.02 0.02 0.02 0.03 0.04 0.05 0.06 0.07 0.08 0.08
0.08 0.04 0.01 0.00 0.00 0.00 0.00 0.00 0.00 0.00 0.00 0.00 0.00 0.00 0.00 0.00 0.00 0.00 0.00 0.00 0.00 0.00 0.00 0.00 0.00 0.00 0.00 0.01 0.01 0.00 0.00 0.00 0.00 0.01 0.02 0.02 0.03 0.06 0.06 0.07 0.07 0.08 0.12
0.05 0.03 0.01 0.00 0.00 0.00 0.00 0.00 0.01 0.01 0.01 0.01 0.00 0.00 0.00 0.00 0.00 0.00 0.00 0.00 0.00 0.00 0.00 0.00 0.00 0.00 0.00 0.00 0.01 0.01 0.01 0.01 0.01 0.01 0.02 0.02 0.04 0.05 0.06 0.07 0.09 0.11 0.13
0.01 0.01 0.00 0.00 0.00 0.00 0.00 0.01 0.01 0.01 0.01 0.00 0.00 0.00 0.00 0.00 0.00 0.00 0.00 0.00 0.00 0.00 0.00 0.00 0.00 0.00 0.00 0.00 0.01 0.00 0.00 0.00 0.00 0.01 0.01 0.02 0.03 0.04 0.04 0.06 0.09 0.09 0.11
0.00 0.00 0.00 0.00 0.00 0.00 0.00 0.00 0.00 0.01 0.01 0.00 0.00 0.00 0.00 0.00 0.00 0.00 0.00 0.00 0.00 0.00 0.00 0.00 0.00 0.00 0.00 0.00 0.00 0.01 0.01 0.01 0.01 0.01 0.01 0.01 0.02 0.02 0.03 0.03 0.04 0.05 0.06
0.00 0.00 0.00 0.00 0.00 0.00 0.00 0.00 0.00 0.01 0.00 0.00 0.00 0.00 0.00 0.00 0.00 0.00 0.00 0.00 0.00 0.00 0.00 0.00 0.00 0.00 0.00 0.00 0.00 0.00 0.00 0.00 0.01 0.01 0.00 0.01 0.01 0.01 0.02 0.02 0.02 0.03 0.04
0.00 0.00 0.00 0.00 0.00 0.00 0.00 0.00 0.00 0.00 0.00 0.00 0.00 0.00 0.00 0.00 0.00 0.00 0.00 0.00 0.00 0.00 0.00 0.00 0.00 0.00 0.00 0.00 0.00 0.00 0.00 0.00 0.00 0.00 0.01 0.01 0.00 0.00 0.01 0.01 0.02 0.02 0.02
0.00 0.00 0.00 0.00 0.00 0.00 0.00 0.00 0.00 0.00 0.00 0.00 0.00 0.00 0.00 0.00 0.00 0.00 0.00 0.00 0.00 0.00 0.00 0.00 0.00 0.00 0.00 0.00 0.00 0.00 0.00 0.00 0.00 0.00 0.00 0.00 0.00 0.00 0.01 0.01 0.01 0.01 0.02
0.00 0.00 0.00 0.00 0.00 0.00 0.00 0.00 0.00 0.00 0.00 0.00 0.00 0.00 0.00 0.00 0.00 0.00 0.00 0.00 0.00 0.00 0.00 0.00 0.00 0.00 0.00 0.00 0.00 0.00 0.00 0.00 0.00 0.00 0.00 0.00 0.00 0.00 0.00 0.01 0.01 0.01 0.01
0.00 0.00 0.00 0.00 0.00 0.00 0.00 0.00 0.00 0.00 0.00 0.00 0.00 0.00 0.00 0.00 0.00 0.00 0.00 0.00 0.00 0.00 0.00 0.00 0.00 0.00 0.00 0.00 0.00 0.00 0.00 0.00 0.00 0.00 0.00 0.00 0.00 0.00 0.00 0.00 0.01 0.01 0.01
0.00 0.00 0.00 0.00 0.00 0.00 0.00 0.00 0.00 0.00 0.00 0.00 0.00 0.00 0.00 0.00 0.00 0.00 0.00 0.00 0.00 0.00 0.00 0.00 0.00 0.00 0.00 0.00 0.00 0.00 0.00 0.00 0.00 0.00 0.00 0.00 0.00 0.00 0.00 0.00 0.00 0.01 0.01
0.00 0.00 0.00 0.00 0.00 0.00 0.00 0.00 0.00 0.00 0.00 0.00 0.00 0.00 0.00 0.00 0.00 0.00 0.00 0.00 0.00 0.00 0.00 0.00 0.00 0.00 0.00 0.00 0.00 0.00 0.00 0.00 0.00 0.00 0.00 0.00 0.00 0.00 0.00 0.00 0.00 0.00 0.01
0.00 0.00 0.00 0.00 0.00 0.00 0.00 0.00 0.00 0.00 0.00 0.00 0.00 0.00 0.00 0.00 0.00 0.00 0.00 0.00 0.00 0.00 0.00 0.00 0.00 0.00 0.00 0.00 0.00 0.00 0.00 0.00 0.00 0.00 0.00 0.00 0.00 0.00 0.00 0.00 0.00 0.00 0.00
0.00 0.00 0.00 0.00 0.00 0.00 0.00 0.00 0.00 0.00 0.00 0.00 0.00 0.00 0.00 0.00 0.00 0.00 0.00 0.00 0.00 0.00 0.00 0.00 0.00 0.00 0.00 0.00 0.00 0.00 0.00 0.01 0.01 0.01 0.01 0.00 0.00 0.01 0.01 0.01 0.00 0.00 0.00
0.00 0.00 0.00 0.00 0.00 0.00 0.00 0.00 0.00 0.00 0.00 0.00 0.00 0.00 0.00 0.00 0.00 0.00 0.00 0.00 0.00 0.00 0.00 0.00 0.00 0.00 0.00 0.00 0.00 0.00 0.00 0.00 0.01 0.01 0.01 0.01 0.00 0.00 0.00 0.00 0.00 0.01 0.01
0.00 0.00 0.00 0.00 0.00 0.00 0.00 0.00 0.00 0.00 0.00 0.00 0.00 0.00 0.00 0.00 0.00 0.00 0.00 0.00 0.00 0.00 0.00 0.00 0.00 0.00 0.00 0.00 0.00 0.00 0.00 0.00 0.01 0.01 0.01 0.01 0.00 0.00 0.00 0.00 0.00 0.00 0.01
0.00 0.00 0.00 0.00 0.00 0.00 0.00 0.00 0.00 0.00 0.00 0.00 0.00 0.00 0.00 0.00 0.00 0.00 0.00 0.00 0.00 0.00 0.00 0.00 0.00 0.00 0.00 0.00 0.00 0.00 0.00 0.00 0.00 0.01 0.01 0.01 0.00 0.00 0.00 0.01 0.00 0.00 0.00
0.00 0.00 0.00 0.00 0.00 0.00 0.00 0.00 0.00 0.00 0.00 0.00 0.00 0.00 0.00 0.00 0.00 0.00 0.00 0.00 0.00 0.00 0.00 0.00 0.00 0.00 0.00 0.00 0.00 0.00 0.00 0.00 0.00 0.01 0.01 0.01 0.01 0.01 0.01 0.02 0.02 0.01 0.01
0.00 0.00 0.00 0.00 0.00 0.00 0.00 0.00 0.00 0.00 0.00 0.00 0.00 0.00 0.00 0.00 0.00 0.00 0.00 0.00 0.00 0.00 0.00 0.00 0.00 0.00 0.00 0.00 0.00 0.00 0.00 0.00 0.00 0.01 0.01 0.01 0.01 0.01 0.01 0.01 0.02 0.02 0.01
0.00 0.00 0.00 0.00 0.00 0.00 0.00 0.00 0.00 0.00 0.00 0.00 0.00 0.00 0.00 0.00 0.00 0.00 0.00 0.00 0.00 0.00 0.00 0.00 0.00 0.00 0.01 0.00 0.00 0.00 0.00 0.00 0.00 0.01 0.01 0.01 0.00 0.00 0.00 0.01 0.02 0.02 0.02
0.00 0.00 0.00 0.00 0.00 0.00 0.00 0.00 0.00 0.00 0.00 0.00 0.00 0.00 0.00 0.00 0.00 0.00 0.00 0.00 0.00 0.00 0.00 0.00 0.00 0.01 0.01 0.00 0.00 0.00 0.00 0.01 0.01 0.01 0.01 0.01 0.01 0.00 0.00 0.00 0.01 0.02 0.02
0.00 0.00 0.00 0.00 0.00 0.00 0.00 0.00 0.00 0.00 0.00 0.00 0.00 0.00 0.00 0.00 0.00 0.00 0.00 0.00 0.00 0.00 0.00 0.01 0.01 0.01 0.01 0.00 0.00 0.00 0.00 0.00 0.01 0.01 0.01 0.02 0.00 0.00 0.00 0.00 0.00 0.00 0.01
0.00 0.00 0.00 0.00 0.00 0.00 0.00 0.00 0.00 0.00 0.00 0.00 0.00 0.00 0.00 0.00 0.00 0.00 0.00 0.00 0.00 0.00 0.00 0.01 0.01 0.00 0.01 0.01 0.00 0.00 0.00 0.00 0.00 0.01 0.00 0.01 0.00 0.00 0.01 0.01 0.00 0.00 0.01
0.00 0.00 0.00 0.00 0.00 0.00 0.00 0.00 0.00 0.00 0.00 0.00 0.00 0.00 0.00 0.00 0.00 0.00 0.00 0.00 0.00 0.00 0.01 0.01 0.01 0.01 0.01 0.02 0.02 0.02 0.01 0.01 0.01 0.01 0.01 0.00 0.01 0.01 0.02 0.02 0.02 0.02 0.03
0.00 0.00 0.00 0.00 0.00 0.00 0.00 0.00 0.00 0.00 0.00 0.00 0.00 0.00 0.00 0.00 0.00 0.00 0.00 0.00 0.00 0.00 0.00 0.00 0.01 0.01 0.01 0.01 0.01 0.01 0.01 0.01 0.01 0.01 0.02 0.02 0.03 0.05 0.06 0.05 0.06 0.06 0.06
0.00 0.00 0.00 0.00 0.00 0.00 0.00 0.00 0.00 0.00 0.00 0.00 0.00 0.00 0.00 0.00 0.00 0.00 0.00 0.00 0.00 0.00 0.00 0.00 0.00 0.00 0.00 0.00 0.00 0.00 0.00 0.00 0.01 0.01 0.01 0.03 0.05 0.06 0.08 0.08 0.08 0.08 0.09
MSLP
1015.81 1015.79 1015.79 1015.80 1015.84 1015.92 1016.04 1016.21 1016.41 1016.65 1016.89 1017.12 1017.33 1017.49 1017.61 1017.67 1017.67 1017.62 1017.52 1017.38 1017.21 1017.01 1016.80 1016.60 1016.41 1016.25 1016.11 1016.00 1015.90 1015.80 1015.67 1015.51 1015.29 1015.02 1014.69 1014.34 1013.96 1013.60 1013.27 1012.99 1012.78 1012.65 1012.60
1015.80 1015.77 1015.74 1015.73 1015.76 1015.84 1015.97 1016.16 1016.40 1016.67 1016.95 1017.21 1017.44 1017.60 1017.70 1017.72 1017.68 1017.60 1017.47 1017.32 1017.16 1016.99 1016.82 1016.66 1016.51 1016.36 1016.21 1016.06 1015.91 1015.75 1015.58 1015.38 1015.15 1014.89 1014.60 1014.28 1013.95 1013.60 1013.27 1012.95 1012.68 1012.46 1012.30
1015.59 1015.56 1015.54 1015.55 1015.59 1015.68 1015.83 1016.05 1016.32 1016.63 1016.94 1017.23 1017.47 1017.63 1017.71 1017.72 1017.65 1017.54 1017.40 1017.26 1017.12 1016.99 1016.87 1016.74 1016.62 1016.47 1016.31 1016.13 1015.93 1015.71 1015.49 1015.27 1015.04 1014.80 1014.56 1014.29 1014.01 1013.70 1013.37 1013.03 1012.70 1012.39 1012.13
1015.17 1015.17 1015.19 1015.23 1015.30 1015.43 1015.61 1015.86 1016.16 1016.50 1016.84 1017.15 1017.40 1017.57 1017.65 1017.64 1017.57 1017.46 1017.33 1017.20 1017.09 1017.00 1016.91 1016.82 1016.72 1016.57 1016.39 1016.18 1015.94 1015.68 1015.43 1015.19 1014.97 1014.77 1014.57 1014.36 1014.12 1013.85 1013.53 1013.17 1012.78 1012.40 1012.05
1014.58 1014.63 1014.70 1014.80 1014.92 1015.09 1015.31 1015.59 1015.91 1016.27 1016.63 1016.96 1017.22 1017.40 1017.49 1017.50 1017.44 1017.34 1017.22 1017.12 1017.04 1016.98 1016.93 1016.87 1016.77 1016.63 1016.44 1016.21 1015.94 1015.66 1015.39 1015.15 1014.95 1014.77 1014.62 1014.46 1014.26 1014.02 1013.70 1013.32 1012.90 1012.45 1012.03
1013.87 1013.99 1014.13 1014.30 1014.48 1014.70 1014.95 1015.25 1015.59 1015.96 1016.33 1016.66 1016.94 1017.14 1017.24 1017.27 1017.23 1017.15 1017.06 1016.99 1016.93 1016.90 1016.87 1016.82 1016.74 1016.60 1016.41 1016.17 1015.89 1015.61 1015.34 1015.11 1014.93 1014.79 1014.66 1014.53 1014.37 1014.14 1013.83 1013.44 1012.99 1012.50 1012.02
1013.14 1013.33 1013.55 1013.79 1014.03 1014.29 1014.57 1014.89 1015.23 1015.59 1015.96 1016.29 1016.57 1016.78 1016.91 1016.95 1016.93 1016.88 1016.81 1016.76 1016.72 1016.69 1016.67 1016.64 1016.56 1016.44 1016.25 1016.02 1015.76 1015.49 1015.24 1015.03 1014.87 1014.75 1014.65 1014.55 1014.40 1014.18 1013.87 1013.48 1013.01 1012.51 1012.00
1012.47 1012.74 1013.04 1013.34 1013.64 1013.93 1014.23 1014.54 1014.88 1015.22 1015.57 1015.89 1016.16 1016.37 1016.50 1016.56 1016.56 1016.52 1016.46 1016.41 1016.37 1016.35 1016.33 1016.30 1016.23 1016.12 1015.95 1015.75 1015.51 1015.27 1015.06 1014.87 1014.74 1014.63 1014.55 1014.45 1014.31 1014.09 1013.79 1013.41 1012.95 1012.45 1011.95
1011.94 1012.28 1012.64 1013.00 1013.35 1013.66 1013.97 1014.27 1014.57 1014.89 1015.20 1015.49 1015.74 1015.93 1016.06 1016.11 1016.11 1016.07 1016.01 1015.95 1015.90 1015.87 1015.84 1015.80 1015.74 1015.65 1015.51 1015.34 1015.15 1014.95 1014.76 1014.61 1014.48 1014.39 1014.31 1014.21 1014.07 1013.86 1013.57 1013.21 1012.79 1012.32 1011.86
1011.58 1011.98 1012.40 1012.80 1013.17 1013.50 1013.79 1014.07 1014.34 1014.60 1014.87 1015.12 1015.33 1015.50 1015.60 1015.64 1015.62 1015.57 1015.49 1015.41 1015.34 1015.28 1015.24 1015.20 1015.15 1015.08 1014.97 1014.84 1014.68 1014.52 1014.37 1014.23 1014.12 1014.02 1013.93 1013.82 1013.67 1013.48 1013.22 1012.89 1012.52 1012.11 1011.71
1011.39 1011.82 1012.27 1012.70 1013.08 1013.40 1013.68 1013.93 1014.15 1014.38 1014.59 1014.79 1014.96 1015.08 1015.15 1015.16 1015.12 1015.04 1014.94 1014.83 1014.74 1014.66 1014.61 1014.57 1014.52 1014.47 1014.39 1014.29 1014.17 1014.03 1013.89 1013.76 1013.64 1013.52 1013.41 1013.29 1013.15 1012.97 1012.74 1012.47 1012.17 1011.84 1011.51
1011.30 1011.75 1012.21 1012.64 1013.01 1013.33 1013.58 1013.80 1013.99 1014.16 1014.33 1014.48 1014.60 1014.69 1014.72 1014.70 1014.63 1014.53 1014.40 1014.27 1014.16 1014.07 1014.01 1013.97 1013.93 1013.89 1013.83 1013.75 1013.65 1013.52 1013.38 1013.23 1013.09 1012.95 1012.81 1012.68 1012.53 1012.37 1012.19 1011.98 1011.76 1011.52 1011.28
1011.23 1011.68 1012.13 1012.54 1012.90 1013.19 1013.43 1013.62 1013.78 1013.92 1014.05 1014.17 1014.25 1014.30 1014.31 1014.26 1014.17 1014.05 1013.91 1013.77 1013.65 1013.55 1013.49 1013.45 1013.42 1013.39 1013.34 1013.27 1013.16 1013.02 1012.86 1012.68 1012.50 1012.32 1012.16 1012.01 1011.87 1011.73 1011.60 1011.47 1011.33 1011.18 1011.02
1011.10 1011.53 1011.95 1012.34 1012.67 1012.94 1013.16 1013.34 1013.49 1013.61 1013.73 1013.82 1013.89 1013.92 1013.90 1013.84 1013.74 1013.61 1013.47 1013.33 1013.21 1013.13 1013.07 1013.04 1013.02 1012.99 1012.94 1012.85 1012.72 1012.56 1012.35 1012.13 1011.91 1011.69 1011.49 1011.33 1011.20 1011.10 1011.02 1010.96 1010.91 1010.84 1010.76
1010.84 1011.23 1011.62 1011.97 1012.28 1012.54 1012.76 1012.94 1013.09 1013.22 1013.34 1013.43 1013.49 1013.52 1013.50 1013.43 1013.33 1013.21 1013.07 1012.95 1012.85 1012.77 1012.73 1012.70 1012.68 1012.65 1012.58 1012.47 1012.32 1012.11 1011.86 1011.58 1011.31 1011.06 1010.84 1010.67 1010.55 1010.49 1010.48 1010.49 1010.51 1010.52 1010.50
1010.42 1010.77 1011.12 1011.45 1011.74 1012.00 1012.23 1012.43 1012.61 1012.76 1012.90 1013.01 1013.08 1013.11 1013.09 1013.03 1012.94 1012.83 1012.70 1012.59 1012.51 1012.45 1012.41 1012.39 1012.37 1012.32 1012.23 1012.10 1011.90 1011.64 1011.35 1011.03 1010.72 1010.44 1010.21 1010.04 1009.95 1009.93 1009.97 1010.05 1010.14 1010.21 1010.25
1009.86 1010.17 1010.49 1010.79 1011.09 1011.36 1011.62 1011.85 1012.07 1012.27 1012.44 1012.58 1012.67 1012.71 1012.70 1012.65 1012.56 1012.45 1012.34 1012.23 1012.15 1012.10 1012.06 1012.04 1012.00 1011.94 1011.83 1011.66 1011.43 1011.14 1010.81 1010.46 1010.12 1009.83 1009.60 1009.45 1009.39 1009.42 1009.51 1009.64 1009.78 1009.91 1009.98
1009.18 1009.46 1009.76 1010.07 1010.38 1010.69 1010.99 1011.28 1011.55 1011.80 1012.01 1012.18 1012.29 1012.34 1012.34 1012.28 1012.18 1012.07 1011.94 1011.83 1011.74 1011.68 1011.63 1011.59 1011.54 1011.46 1011.33 1011.14 1010.88 1010.57 1010.22 1009.86 1009.52 1009.23 1009.02 1008.89 1008.87 1008.93 1009.07 1009.24 1009.42 1009.58 1009.68
1008.44 1008.71 1009.01 1009.34 1009.68 1010.04 1010.40 1010.75 1011.08 1011.38 1011.64 1011.83 1011.96 1012.01 1012.00 1011.93 1011.81 1011.66 1011.51 1011.38 1011.26 1011.17 1011.10 1011.04 1010.97 1010.87 1010.72 1010.52 1010.26 1009.94 1009.60 1009.24 1008.92 1008.64 1008.45 1008.35 1008.36 1008.45 1008.62 1008.82 1009.03 1009.20 1009.31
1007.70 1007.98 1008.30 1008.66 1009.05 1009.46 1009.87 1010.29 1010.67 1011.02 1011.31 1011.52 1011.66 1011.71 1011.67 1011.57 1011.42 1011.23 1011.04 1010.86 1010.70 1010.57 1010.47 1010.39 1010.30 1010.19 1010.04 1009.84 1009.59 1009.29 1008.97 1008.63 1008.33 1008.08 1007.90 1007.83 1007.85 1007.96 1008.13 1008.35 1008.56 1008.74 1008.86
1007.03 1007.32 1007.66 1008.05 1008.48 1008.94 1009.41 1009.87 1010.30 1010.68 1010.99 1011.22 1011.35 1011.38 1011.33 1011.19 1010.99 1010.76 1010.52 1010.29 1010.09 1009.92 1009.78 1009.68 1009.58 1009.47 1009.33 1009.15 1008.93 1008.66 1008.36 1008.06 1007.78 1007.54 1007.38 1007.31 1007.32 1007.42 1007.59 1007.80 1008.00 1008.17 1008.28
1006.46 1006.76 1007.11 1007.53 1007.99 1008.48 1008.98 1009.47 1009.92 1010.32 1010.64 1010.86 1010.98 1011.00 1010.91 1010.74 1010.51 1010.23 1009.95 1009.67 1009.43 1009.23 1009.08 1008.95 1008.86 1008.76 1008.65 1008.50 1008.31 1008.09 1007.83 1007.55 1007.28 1007.05 1006.88 1006.78 1006.77 1006.84 1006.98 1007.15 1007.33 1007.48 1007.59
1006.04 1006.33 1006.68 1007.10 1007.56 1008.05 1008.55 1009.03 1009.48 1009.87 1010.18 1010.40 1010.50 1010.50 1010.40 1010.20 1009.94 1009.64 1009.32 1009.02 1008.76 1008.55 1008.38 1008.27 1008.18 1008.11 1008.03 1007.93 1007.78 1007.60 1007.36 1007.10 1006.84 1006.59 1006.39 1006.25 1006.18 1006.19 1006.27 1006.40 1006.55 1006.68 1006.78
1005.81 1006.06 1006.38 1006.76 1007.18 1007.63 1008.09 1008.54 1008.95 1009.31 1009.59 1009.79 1009.87 1009.86 1009.74 1009.54 1009.27 1008.96 1008.65 1008.35 1008.08 1007.87 1007.72 1007.62 1007.57 1007.53 1007.50 1007.43 1007.33 1007.17 1006.96 1006.71 1006.42 1006.14 1005.88 1005.68 1005.54 1005.47 1005.49 1005.56 1005.67 1005.79 1005.89
1005.77 1005.96 1006.22 1006.52 1006.87 1007.24 1007.62 1008.00 1008.34 1008.64 1008.87 1009.03 1009.10 1009.07 1008.96 1008.76 1008.51 1008.22 1007.92 1007.64 1007.40 1007.21 1007.09 1007.03 1007.01 1007.01 1007.01 1006.99 1006.92 1006.78 1006.58 1006.31 1005.99 1005.66 1005.33 1005.05 1004.83 1004.68 1004.62 1004.64 1004.72 1004.83 1004.94
1005.95 1006.06 1006.21 1006.41 1006.65 1006.90 1007.17 1007.43 1007.68 1007.89 1008.06 1008.18 1008.22 1008.18 1008.08 1007.90 1007.68 1007.42 1007.16 1006.91 1006.71 1006.56 1006.47 1006.44 1006.46 1006.50 1006.53 1006.54 1006.48 1006.36 1006.14 1005.85 1005.50 1005.10 1004.71 1004.34 1004.04 1003.82 1003.69 1003.67 1003.73 1003.84 1003.98
Thickness
5737 5736 5735 5734 5732 5729 5726 5724 5722 5718 5715 5714 5712 5709 5707 5704 5702 5699 5693 5691 5689 5688 5687 5689 5688 5688 5690 5689 5689 5689 5691 5692 5695 5696 5701 5708 5714 5715 5715 5716 5717 5719 5719
5731 5730 5731 5731 5730 5727 5725 5722 5718 5716 5712 5710 5706 5703 5700 5699 5696 5692 5687 5684 5683 5681 5683 5680 5682 5683 5681 5681 5681 5681 5682 5686 5689 5687 5689 5695 5703 5706 5713 5712 5712 5713 5715
5729 5728 5728 5729 5729 5727 5724 5723 5718 5714 5710 5706 5704 5700 5696 5694 5693 5689 5686 5681 5677 5676 5674 5673 5674 5674 5676 5678 5675 5674 5675 5677 5681 5683 5681 5682 5687 5692 5702 5704 5706 5706 5707
5731 5731 5731 5730 5730 5729 5727 5722 5717 5712 5708 5703 5701 5697 5692 5689 5686 5683 5682 5677 5674 5672 5670 5669 5668 5667 5670 5669 5669 5673 5669 5668 5672 5676 5676 5675 5676 5675 5683 5692 5697 5699 5700
5737 5735 5735 5734 5733 5732 5728 5723 5717 5711 5706 5702 5697 5692 5690 5688 5686 5681 5677 5674 5674 5670 5668 5665 5664 5662 5664 5663 5661 5661 5661 5663 5664 5666 5669 5670 5670 5670 5670 5675 5682 5688 5693
5741 5739 5739 5737 5734 5732 5728 5723 5716 5710 5705 5700 5696 5690 5686 5682 5679 5675 5674 5673 5673 5670 5667 5663 5660 5659 5659 5657 5655 5654 5655 5654 5654 5655 5659 5661 5662 5665 5666 5667 5670 5676 5683
5743 5741 5738 5736 5733 5730 5727 5723 5715 5709 5704 5699 5694 5690 5685 5680 5676 5673 5673 5669 5669 5668 5664 5661 5656 5655 5653 5650 5649 5648 5647 5647 5645 5645 5648 5651 5653 5656 5657 5659 5663 5667 5674
5747 5744 5742 5739 5734 5731 5726 5721 5714 5708 5703 5698 5693 5688 5683 5681 5679 5674 5669 5667 5665 5663 5659 5655 5652 5650 5647 5646 5644 5643 5642 5640 5638 5638 5638 5639 5643 5646 5648 5650 5653 5657 5664
5749 5746 5743 5739 5735 5730 5725 5720 5713 5707 5702 5698 5692 5686 5682 5678 5675 5670 5667 5666 5662 5659 5656 5651 5648 5645 5642 5639 5636 5637 5634 5633 5631 5632 5632 5631 5634 5636 5638 5641 5643 5645 5649
5750 5747 5744 5739 5735 5730 5724 5718 5712 5706 5701 5696 5690 5687 5681 5676 5671 5668 5664 5660 5657 5653 5650 5647 5644 5641 5638 5634 5631 5629 5628 5624 5622 5621 5620 5619 5622 5626 5628 5630 5633 5637 5640
5752 5747 5742 5738 5733 5728 5722 5715 5710 5704 5698 5693 5688 5682 5678 5674 5670 5665 5661 5657 5653 5649 5646 5642 5639 5636 5632 5629 5625 5623 5620 5617 5615 5613 5613 5611 5610 5613 5616 5620 5623 5627 5631
5752 5747 5741 5735 5730 5726 5721 5714 5708 5703 5697 5692 5685 5680 5675 5671 5666 5663 5659 5654 5649 5645 5642 5638 5634 5630 5627 5623 5619 5615 5613 5610 5607 5605 5604 5603 5603 5603 5604 5607 5611 5616 5620
5748 5744 5738 5733 5728 5724 5719 5714 5707 5702 5697 5691 5683 5678 5673 5669 5664 5659 5655 5650 5646 5641 5637 5633 5628 5624 5620 5616 5612 5608 5605 5602 5600 5598 5596 5594 5594 5593 5595 5597 5601 5606 5612
5744 5740 5735 5730 5726 5721 5715 5710 5705 5700 5694 5688 5682 5675 5670 5666 5661 5656 5651 5646 5642 5637 5632 5628 5623 5618 5614 5610 5606 5601 5598 5594 5592 5590 5588 5586 5586 5585 5586 5588 5590 5594 5599
5742 5738 5734 5729 5724 5718 5712 5707 5702 5697 5690 5684 5678 5673 5669 5663 5658 5652 5647 5642 5637 5633 5628 5622 5617 5612 5607 5604 5600 5594 5590 5587 5584 5583 5581 5580 5578 5577 5576 5579 5583 5586 5590
5743 5739 5734 5729 5722 5717 5711 5706 5699 5694 5687 5680 5675 5671 5665 5659 5654 5649 5644 5638 5632 5627 5621 5616 5610 5606 5602 5596 5587 5580 5579 5577 5576 5575 5574 5574 5572 5570 5567 5566 5568 5570 5576
5744 5739 5735 5729 5723 5717 5711 5703 5697 5691 5684 5677 5672 5667 5661 5656 5650 5645 5639 5633 5627 5621 5615 5609 5604 5599 5593 5585 5578 5571 5568 5569 5570 5569 5568 5568 5569 5565 5564 5563 5561 5562 5563
5745 5740 5736 5730 5724 5717 5710 5701 5695 5687 5680 5674 5669 5664 5658 5652 5646 5639 5633 5627 5620 5614 5608 5602 5597 5592 5587 5579 5572 5566 5562 5564 5565 5564 5562 5560 5559 5558 5557 5557 5559 5560 5563
5747 5742 5738 5733 5724 5716 5708 5699 5691 5684 5677 5671 5665 5660 5654 5647 5640 5633 5627 5621 5614 5608 5602 5597 5591 5586 5581 5574 5567 5558 5560 5562 5562 5560 5558 5555 5553 5550 5545 5545 5548 5552 5556
5747 5742 5736 5729 5720 5712 5704 5694 5688 5681 5675 5669 5663 5656 5649 5641 5634 5627 5621 5615 5608 5602 5596 5591 5586 5581 5577 5571 5562 5554 5556 5559 5558 5557 5554 5549 5545 5542 5536 5537 5540 5543 5547
5745 5739 5732 5724 5717 5709 5700 5690 5684 5678 5673 5666 5659 5651 5644 5636 5629 5622 5615 5608 5603 5597 5590 5585 5581 5577 5572 5568 5560 5552 5550 5552 5552 5551 5550 5548 5541 5534 5529 5526 5530 5534 5536
5740 5734 5726 5719 5713 5705 5695 5686 5680 5675 5668 5661 5653 5646 5639 5632 5626 5618 5610 5603 5597 5591 5586 5581 5577 5575 5572 5566 5560 5551 5544 5541 5543 5544 5544 5542 5534 5528 5523 5521 5523 5522 5522
5734 5729 5722 5714 5707 5700 5691 5682 5677 5670 5662 5653 5646 5639 5633 5626 5619 5611 5605 5599 5594 5588 5584 5579 5575 5574 5571 5565 5556 5549 5543 5537 5535 5539 5537 5531 5525 5521 5520 5517 5516 5515 5518
5727 5723 5716 5708 5701 5694 5687 5679 5672 5664 5655 5647 5640 5634 5627 5621 5615 5607 5601 5596 5591 5586 5580 5575 5572 5570 5567 5562 5557 5552 5546 5536 5534 5533 5532 5525 5521 5518 5518 5518 5517 5517 5520
5718 5714 5708 5701 5695 5688 5680 5673 5665 5656 5648 5641 5635 5629 5624 5618 5610 5603 5597 5591 5585 5580 5572 5570 5567 5564 5561 5557 5544 5540 5539 5536 5533 5526 5526 5527 5528 5527 5525 5524 5522 5521 5520
5704 5701 5696 5692 5686 5679 5672 5665 5658 5649 5641 5636 5630 5625 5620 5613 5607 5600 5595 5589 5580 5573 5565 5557 5552 5554 5550 5544 5537 5532 5527 5522 5517 5515 5522 5525 5526 5526 5526 5525 5523 5522 5521